Volver al catálogo

COSMOS 1176 COOLANT

ActivoLEO
NORAD 27568·DEBRIS·🇷🇺 Russia

Lanzado Apr 29, 1980 desde Baikonur Cosmodrome

Loading…

Próximos Pases (próximas 24 horas)

TLE

ObsoletoSource: Space-Track

Época: Sep 2, 2026, 08:24 UTC

1 27568U 80034E   26245.35020832  .00000129  00000-0  11834-3 0  9997
2 27568  64.8182 270.2927 0048220 226.0913 133.6176 14.13561801110398

Sigue COSMOS 1176 COOLANT en tiempo real con AllMySat

Download on the App Store